Location: Sinnemahoning State Park
(41.4031°N, 78.0230°W)
Time: 15:45:16
(UTC-04:00)

Daily predictions for brighter satellites

Satellite Brightness Start Highest point End
(mag) Time Altitude Azimuth Time Altitude Azimuth Time Altitude Azimuth
Spot 2 Rocket 4.0 20:19:35 10° S 20:24:38 66° WSW 20:29:43 10° NNW
Cosmos 1656 Rocket 4.2 20:20:05 10° SSW 20:25:39 68° WNW 20:31:11 10° NNE
Cosmos 1570 Rocket 4.4 20:23:09 10° S 20:28:05 41° ESE 20:33:02 10° NNE
Resurs 01 Rocket 2.6 20:28:44 10° S 20:33:02 51° W 20:37:22 10° NNW
Cosmos 1934 Rocket 4.1 20:27:33 10° S 20:33:30 57° E 20:39:35 10° NNE
Cosmos 1461 3.9 20:30:11 10° NNW 20:33:47 29° NE 20:37:13 10° ESE
Meteor 2-4 Rocket 3.8 20:28:01 10° N 20:33:53 83° E 20:39:49 10° S
Lacrosse 5 rocket 2.7 20:31:24 10° NNW 20:34:24 22° NNE 20:37:20 10° E
Envisat 4.4 20:31:30 10° ESE 20:35:18 22° ENE 20:39:07 10° NNE
Cosmos 1315 Rocket 3.4 20:32:03 10° SSW 20:36:00 63° WNW 20:40:02 10° N
Cosmos 2278 4.0 20:34:16 10° S 20:39:35 43° ESE 20:44:56 10° NE
Cosmos 1697 Rocket 4.2 20:37:12 10° SE 20:40:21 15° E 20:43:28 10° ENE
Tiangong 1 1.0 20:38:32 10° WSW 20:41:39 89° SE 20:44:45 10° ENE
DELTA 2 R/B (1) 3.6 20:38:10 10° W 20:43:44 75° S 20:49:03 11° E
CZ-4 DEB 4.0 20:42:04 12° SE 20:44:21 25° ENE 20:46:59 10° NNE
USA 186 1.6 20:45:19 10° SSE 20:48:27 72° ENE 20:51:26 10° N
H-2A R/B 2.8 20:46:22 10° SSE 20:50:13 89° ENE 20:54:10 10° NNW
OTV 4 1.0 20:47:38 10° WSW 20:50:27 42° S 20:52:22 18° ESE
Meteor 1-23 Rocket 4.4 20:45:20 10° NNW 20:50:58 77° W 20:56:39 10° S
CZ-4B DEB 4.0 20:48:33 10° S 20:51:42 44° W 20:54:52 10° NNW
Cosmos 2369 3.9 20:47:02 10° S 20:52:27 49° ESE 20:57:55 10° NE
ATLAS CENTAUR R/B 4.0 20:49:55 10° WSW 20:54:17 29° NW 20:58:34 10° NNE
EP 2 4.5 20:51:47 10° SW 20:54:22 72° NW 20:57:10 10° NNE
Cosmos 1939 Rocket 3.9 20:52:34 15° SE 20:55:20 30° ENE 20:58:59 10° N
Iridium 4 Rocket 4.0 20:50:37 10° NNE 20:55:28 38° E 20:59:35 12° SSE
Cosmos 1544 Rocket 3.7 20:51:13 10° S 20:55:35 81° W 21:00:01 10° N
OAO 2 Rocket 4.3 20:56:59 10° SW 21:01:16 28° SSE 21:03:59 18° ESE
Cosmos 1980 Rocket 3.8 21:02:28 14° E 21:02:28 14° E 21:04:46 10° ENE
CZ-2D R/B 4.1 21:01:26 10° S 21:05:12 52° W 21:09:00 10° NNW
Hubble Space Telescope 3.1 21:09:35 10° SSW 21:10:56 11° S 21:12:17 10° S
ERS-1 Rocket 3.0 21:07:31 14° SSE 21:11:49 60° ENE 21:16:46 10° N
Cosmos 1898 Rocket 4.3 21:07:03 10° N 21:11:53 34° ENE 21:14:35 21° ESE
Cosmos 1605 Rocket 4.0 21:10:05 10° S 21:16:27 87° E 21:22:46 10° N
Cosmos 1346 Rocket 3.3 21:13:26 10° NNW 21:17:18 59° W 21:21:13 10° S
RESURS DK-1 4.0 21:19:16 10° N 21:22:22 20° NE 21:23:22 18° ENE
Cosmos 2100 Rocket 4.4 21:17:20 14° SSE 21:22:24 42° E 21:28:13 10° NNE
Cosmos 2227 Rocket 2.3 21:22:28 10° NNW 21:28:10 79° WSW 21:32:23 18° SSE
YAOGAN 11 4.2 21:26:24 15° S 21:30:09 79° WSW 21:34:40 10° NNW
ALOS 4.2 21:28:50 10° SSW 21:32:51 28° W 21:36:54 10° NW
Cosmos 468 Rocket 4.2 21:29:32 14° S 21:33:39 45° ESE 21:38:31 10° NNE
Cosmos 1500 3.1 21:34:20 34° SSE 21:35:45 62° E 21:39:28 10° NNE
Cosmos 1825 Rocket 4.2 21:33:40 10° N 21:37:45 35° ENE 21:38:16 33° E
BREEZE-M DEB (TANK) 3.9 21:23:16 10° SW 21:39:26 68° SSE 21:42:56 20° ENE
Cosmos 1814 Rocket 4.3 21:37:53 24° SSE 21:40:38 45° ESE 21:45:41 10° NNE
Cosmos 2082 3.9 21:35:11 10° NNW 21:40:46 67° WSW 21:44:33 21° S
Cosmos 1656 3.6 21:35:22 10° SSW 21:40:58 70° ESE 21:46:31 10° NNE
Cosmos 2297 Rocket 2.2 21:38:21 10° NNW 21:44:02 82° WSW 21:47:09 28° SSE
Cosmos 1953 Rocket 4.5 21:42:00 10° NNE 21:45:59 31° ENE 21:45:59 31° ENE
USA 215 4.0 21:42:02 21° E 21:46:01 42° NNE 21:52:04 10° NW
Lacrosse 5 2.6 21:45:10 10° NW 21:49:59 41° NE 21:51:36 32° E
H-2A R/B 1.8 21:49:23 49° SSE 21:50:25 80° ENE 21:54:34 10° N
Cosmos 1340 3.6 21:48:34 10° N 21:51:30 33° NE 21:51:30 33° NE
SPOT 5 2.9 21:52:32 40° SSE 21:54:19 73° ENE 21:59:13 10° N
deb Chang Zheng 4 3.5 21:50:20 10° NNE 21:54:49 84° ESE 21:57:05 29° S
Cosmos 1626 Rocket 4.5 21:51:13 10° NNW 21:55:26 46° W 21:58:22 18° SSW
Cosmos 1515 4.3 21:54:07 10° NNW 21:57:54 55° W 21:59:10 36° SSW
Cosmos 858 Rocket 4.4 21:53:04 10° NNW 21:58:22 77° ENE 21:59:55 47° SE
Cosmos 2298 Rocket 4.0 21:53:40 10° NNW 21:59:00 86° WSW 22:00:56 41° SSE
Cosmos 1975 4.2 21:56:50 10° SSW 22:00:41 39° WNW 22:04:35 10° N
Cosmos 1459 Rocket 3.8 21:59:01 22° S 22:03:04 82° E 22:09:11 10° N
Cosmos 1758 Rocket 4.2 22:01:10 10° N 22:04:48 40° ENE 22:04:48 40° ENE
Cosmos 1743 2.7 22:06:26 72° NE 22:06:26 72° NE 22:10:03 10° N
Nimbus 7 Rocket 4.4 22:00:27 10° NNE 22:06:33 87° WNW 22:12:29 11° SSW
H-2A R/B 3.1 22:10:13 28° ENE 22:10:13 28° ENE 22:14:08 10° N
YAOGAN 6 2.9 22:12:12 65° N 22:12:12 65° N 22:15:25 10° NNW
Cosmos 1461 4.4 22:09:30 10° WNW 22:12:52 25° WSW 22:13:43 23° SW
Lacrosse 5 rocket 1.9 22:10:16 10° NW 22:13:22 44° WSW 22:13:22 44° WSW
Envisat 3.8 22:11:14 24° SSW 22:13:59 46° W 22:18:53 10° NNW
Cosmos 2098 Rocket 4.2 22:14:26 45° SE 22:16:12 57° E 22:22:15 10° NNE
GEOS 3 Rocket 4.2 22:11:37 10° NE 22:15:07 40° ENE 22:15:07 40° ENE
MetOp-A 4.1 22:15:54 48° S 22:17:27 78° WSW 22:22:50 10° NNW
Tiangong 1 3.0 22:15:10 10° W 22:16:48 28° WNW 22:16:48 28° WNW
Cosmos 1937 Rocket 3.4 22:14:55 10° NNW 22:20:12 86° WSW 22:21:02 65° S
Cosmos 1697 Rocket 2.8 22:17:57 10° SSW 22:23:36 73° WNW 22:29:16 10° NNE
Cosmos 2058 Rocket 3.9 22:25:43 40° NE 22:25:43 40° NE 22:28:51 10° NNE
Cosmos 1802 Rocket 4.1 22:20:59 28° SSW 22:24:39 81° W 22:31:08 10° N
Cosmos 2150 Rocket 4.4 22:21:09 10° NNW 22:26:11 55° WSW 22:27:17 46° SSW
SL-16 R/B 4.2 22:29:57 15° NE 22:29:57 15° NE 22:31:06 10° NE
SPOT 1/Viking Rocket 3.4 22:28:06 75° SSE 22:28:34 87° ENE 22:33:48 10° NNW
DELTA 2 R/B (1) 3.8 22:24:35 10° W 22:29:48 55° SSW 22:29:48 55° SSW
NOAA 11 4.0 22:29:44 72° SE 22:30:19 83° ENE 22:35:49 10° NNW
ASTEX 1 3.6 22:27:08 10° N 22:32:08 69° W 22:33:03 55° SW
SL-08 R/B 4.3 22:30:45 56° S 22:32:13 82° E 22:38:26 10° N
Cosmos 2084 4.1 22:30:02 10° NW 22:33:22 49° W 22:33:22 49° W
SL-08 RB Rocket 3.9 22:35:12 66° NNE 22:35:12 66° NNE 22:39:18 10° N
Meteor 1-15 Rocket 4.4 22:35:41 60° E 22:35:41 60° E 22:41:11 10° NNE
Cosmos 990 Rocket 3.9 22:32:26 10° NNW 22:37:43 82° WSW 22:37:48 81° SW
Cosmos 1606 Rocket 4.0 22:38:14 61° WNW 22:38:14 61° WNW 22:42:22 10° N
Terra 2.9 22:40:15 35° NE 22:40:15 35° NE 22:43:35 10° N
CZ-4B R/B 3.6 22:40:03 10° NNE 22:44:01 62° N 22:44:01 62° N
Cosmos 1980 Rocket 2.2 22:44:07 59° SW 22:45:13 79° WNW 22:50:57 10° NNE
Cosmos 2016 Rocket 4.2 22:43:28 39° SSW 22:45:46 65° W 22:51:56 10° N
ARGOS 3.2 22:49:32 67° WSW 22:49:44 67° WSW 22:55:07 10° NNW
Cosmos 1125 Rocket 4.0 22:55:09 10° NNW 22:59:15 51° NNE 22:59:15 51° NNE
RESURS DK-1 4.1 22:56:43 10° NW 22:59:18 30° WNW 22:59:18 30° WNW
Cosmos 1763 Rocket 4.0 23:04:52 55° WNW 23:04:52 55° WNW 23:09:42 10° N
Tsikada Rocket 4.2 23:05:48 10° NNW 23:12:09 65° W 23:12:34 64° WSW
Cosmos 2263 Rocket 3.2 23:10:33 10° N 23:14:41 37° NNE 23:14:41 37° NNE
Cosmos 2322 Rocket 3.4 23:18:34 33° NNE 23:18:34 33° NNE 23:21:33 10° NNE
Cosmos 841 Rocket 4.5 23:24:39 43° WNW 23:24:39 43° WNW 23:29:32 10° N
Milstar 3 Cent rocket 4.5 23:14:14 10° W 23:26:27 33° SSW 23:26:27 33° SSW
USA 215 3.4 23:29:23 65° WSW 23:29:23 65° WSW 23:35:19 10° NW
Lacrosse 5 3.6 23:28:16 10° WNW 23:30:48 25° W 23:30:48 25° W
H-2A R/B 3.7 23:50:52 28° WNW 23:50:52 28° WNW 23:53:46 10° NNW
